Watertown, WI

2:25 AM CDT on October 15, 2019 (GMT -0500)
Watertown Municipal

Weather History for KRYV - August, 2019

Change the Weather History Date:

Friday, August 23, 2019

  Actual Average Record
Temperature  
Mean Temperature 63 °F -  
Max Temperature 73 °F 79 °F 101 °F (1947)
Min Temperature 54 °F 57 °F 44 °F (1940)
Degree Days  
Heating Degree Days 2    
Growing Degree Days 13 (Base 50)    
Moisture  
Dew Point 55 °F    
Average Humidity 76    
Maximum Humidity 99    
Minimum Humidity 48    
Precipitation  
Precipitation 0.00 in - - ()
Sea Level Pressure  
Sea Level Pressure 30.21 in    
Wind  
Wind Speed 5 mph ()    
Max Wind Speed 12 mph    
Max Gust Speed 17 mph    
Visibility 10.0 miles    
Events      
Averages and records for this station are not official NWS values.
T = Trace of Precipitation, MM = Missing Value Source: Averaged Metar Reports

Daily Weather History Graph

Daily Weather History Graph

Search for Another Location

Airport or City:

Astronomy

Aug. 23, 2019 Rise Set
Actual Time 6:09 AM CDT 7:45 PM CDT
Civil Twilight 5:38 AM CDT 8:15 PM CDT
Nautical Twilight 5:02 AM CDT 8:51 PM CDT
Astronomical Twilight 4:23 AM CDT 9:30 PM CDT
Moon 11:59 PM CDT (8/23) 1:58 PM CDT (8/23)
Length of Visible Light 14h 36m
Length of Day
13h 36m
Waning Gibbous, 49% of the Moon is Illuminated
Aug 23
Waning Gibbous
Aug 30
New
Sep 5
First Quarter
Sep 13
Full
Sep 21
Last Quarter

Hourly Weather History & Observations

Time (CDT) Temp. Dew Point Humidity Pressure Visibility Wind Dir Wind Speed Gust Speed Precip Events Conditions
12:15 AM 57.6 °F 55.6 °F 93% 30.13 in 10.0 mi Calm Calm - N/A   Scattered Clouds
12:35 AM 57.4 °F 55.8 °F 94% 30.14 in 10.0 mi ENE 6.9 mph - N/A   Mostly Cloudy
12:55 AM 57.9 °F 55.4 °F 91% 30.14 in 10.0 mi ENE 5.8 mph - N/A   Scattered Clouds
1:15 AM 58.1 °F 55.4 °F 91% 30.14 in 10.0 mi NE 3.5 mph - N/A   Mostly Cloudy
1:35 AM 58.8 °F 55.4 °F 88% 30.15 in 10.0 mi ENE 3.5 mph - N/A   Overcast
1:55 AM 58.6 °F 55.2 °F 88% 30.15 in 10.0 mi ENE 3.5 mph - N/A   Overcast
2:15 AM 57.7 °F 55.6 °F 92% 30.15 in 10.0 mi NE 3.5 mph - N/A   Mostly Cloudy
2:35 AM 57.9 °F 55.4 °F 91% 30.16 in 10.0 mi NE 3.5 mph - N/A   Mostly Cloudy
2:55 AM 58.1 °F 55.4 °F 91% 30.16 in 10.0 mi NE 4.6 mph - N/A   Overcast
3:15 AM 58.1 °F 55.6 °F 91% 30.16 in 10.0 mi NE 4.6 mph - N/A   Overcast
3:35 AM 58.1 °F 55.0 °F 90% 30.16 in 10.0 mi NE 4.6 mph - N/A   Overcast
3:55 AM 57.4 °F 55.0 °F 92% 30.16 in 10.0 mi ENE 5.8 mph - N/A   Scattered Clouds
4:15 AM 57.4 °F 55.2 °F 92% 30.16 in 10.0 mi ENE 5.8 mph - N/A   Mostly Cloudy
4:35 AM 58.1 °F 54.7 °F 88% 30.16 in 10.0 mi ENE 6.9 mph - N/A   Overcast
4:55 AM 57.4 °F 54.5 °F 90% 30.17 in 10.0 mi ENE 5.8 mph - N/A   Overcast
5:15 AM 56.5 °F 54.5 °F 93% 30.17 in 10.0 mi NE 4.6 mph - N/A   Scattered Clouds
5:35 AM 56.5 °F 54.7 °F 94% 30.17 in 10.0 mi NE 6.9 mph - N/A   Mostly Cloudy
5:55 AM 57.2 °F 54.5 °F 91% 30.18 in 10.0 mi NE 6.9 mph - N/A   Overcast
6:15 AM 57.7 °F 54.5 °F 89% 30.18 in 10.0 mi NE 5.8 mph - N/A   Overcast
6:35 AM 58.1 °F 54.5 °F 88% 30.19 in 10.0 mi NE 8.1 mph - N/A   Overcast
6:55 AM 58.1 °F 54.0 °F 86% 30.19 in 10.0 mi NE 5.8 mph - N/A   Mostly Cloudy
7:15 AM 58.5 °F 54.0 °F 85% 30.20 in 10.0 mi NE 4.6 mph - N/A   Scattered Clouds
7:35 AM 60.1 °F 54.3 °F 81% 30.21 in 10.0 mi NE 5.8 mph - N/A   Scattered Clouds
7:55 AM 61.2 °F 55.0 °F 80% 30.22 in 10.0 mi NE 5.8 mph - N/A   Scattered Clouds
8:15 AM 61.9 °F 55.6 °F 80% 30.23 in 10.0 mi NE 9.2 mph - N/A   Clear
8:35 AM 62.8 °F 56.3 °F 79% 30.23 in 10.0 mi NE 8.1 mph - N/A   Clear
8:55 AM 64.6 °F 56.7 °F 75% 30.23 in 10.0 mi East 9.2 mph - N/A   Clear
9:15 AM 65.8 °F 56.8 °F 73% 30.24 in 10.0 mi East 8.1 mph - N/A   Clear
9:35 AM 66.6 °F 56.8 °F 71% 30.24 in 10.0 mi ENE 8.1 mph - N/A   Clear
9:55 AM 68.7 °F 58.1 °F 69% 30.25 in 10.0 mi ENE 9.2 mph 16.1 mph N/A   Mostly Cloudy
10:15 AM 69.1 °F 57.2 °F 66% 30.25 in 10.0 mi ESE 6.9 mph - N/A   Overcast
10:35 AM 68.7 °F 56.1 °F 64% 30.25 in 10.0 mi NE 8.1 mph - N/A   Mostly Cloudy
10:55 AM 70.3 °F 56.3 °F 61% 30.26 in 10.0 mi East 4.6 mph - N/A   Mostly Cloudy
11:15 AM 68.7 °F 56.3 °F 64% 30.25 in 10.0 mi NE 8.1 mph - N/A   Mostly Cloudy
11:35 AM 70.3 °F 56.7 °F 62% 30.25 in 10.0 mi East 8.1 mph - N/A   Mostly Cloudy
11:55 AM 70.2 °F 55.0 °F 59% 30.25 in 10.0 mi ESE 5.8 mph - N/A   Mostly Cloudy
12:15 PM 70.5 °F 55.6 °F 59% 30.24 in 10.0 mi ENE 4.6 mph - N/A   Mostly Cloudy
12:35 PM 69.8 °F 55.0 °F 59% 30.24 in 10.0 mi East 5.8 mph - N/A   Mostly Cloudy
12:55 PM 71.1 °F 56.5 °F 60% 30.23 in 10.0 mi ENE 4.6 mph - N/A   Mostly Cloudy
1:15 PM 72.1 °F 55.6 °F 56% 30.23 in 10.0 mi ENE 10.4 mph - N/A   Mostly Cloudy
1:35 PM 71.4 °F 55.6 °F 57% 30.23 in 10.0 mi NNE 6.9 mph - N/A   Scattered Clouds
1:55 PM 72.9 °F 54.7 °F 53% 30.23 in 10.0 mi ENE 11.5 mph 16.1 mph N/A   Scattered Clouds
2:15 PM 72.9 °F 54.0 °F 51% 30.23 in 10.0 mi East 5.8 mph - N/A   Scattered Clouds
2:35 PM 71.8 °F 53.8 °F 53% 30.22 in 10.0 mi NNE 6.9 mph - N/A   Clear
2:55 PM 71.2 °F 53.8 °F 54% 30.22 in 10.0 mi NE 8.1 mph - N/A   Mostly Cloudy
3:15 PM 70.2 °F 51.1 °F 51% 30.22 in 10.0 mi North 3.5 mph - N/A   Scattered Clouds
3:35 PM 69.6 °F 52.9 °F 55% 30.22 in 10.0 mi NE 6.9 mph - N/A   Scattered Clouds
3:55 PM 71.8 °F 54.0 °F 53% 30.22 in 10.0 mi NE 10.4 mph - N/A   Mostly Cloudy
4:15 PM 69.8 °F 52.5 °F 54% 30.22 in 10.0 mi NE 5.8 mph - N/A   Scattered Clouds
4:35 PM 72.9 °F 52.0 °F 48% 30.22 in 10.0 mi NE 10.4 mph 17.3 mph N/A   Mostly Cloudy
4:55 PM 70.5 °F 55.6 °F 59% 30.22 in 10.0 mi East 8.1 mph - N/A   Mostly Cloudy
5:15 PM 69.3 °F 54.0 °F 58% 30.22 in 10.0 mi East 9.2 mph - N/A   Scattered Clouds
5:35 PM 69.6 °F 54.1 °F 58% 30.23 in 10.0 mi East 9.2 mph - N/A   Clear
5:55 PM 67.1 °F 53.8 °F 62% 30.23 in 10.0 mi ENE 6.9 mph - N/A   Clear
6:15 PM 67.1 °F 54.7 °F 64% 30.23 in 10.0 mi East 3.5 mph - N/A   Clear
6:35 PM 68.9 °F 54.9 °F 61% 30.23 in 10.0 mi ENE 6.9 mph - N/A   Scattered Clouds
6:55 PM 67.3 °F 54.1 °F 63% 30.23 in 10.0 mi ENE 6.9 mph - N/A   Overcast
7:15 PM 65.8 °F 54.1 °F 66% 30.23 in 10.0 mi ENE 5.8 mph - N/A   Mostly Cloudy
7:35 PM 63.7 °F 54.5 °F 72% 30.23 in 10.0 mi ENE 5.8 mph - N/A   Scattered Clouds
7:55 PM 61.3 °F 54.9 °F 79% 30.23 in 10.0 mi Calm Calm - N/A   Clear
8:15 PM 59.4 °F 54.9 °F 85% 30.23 in 10.0 mi East 3.5 mph - N/A   Clear
8:35 PM 58.1 °F 54.9 °F 89% 30.24 in 10.0 mi ENE 3.5 mph - N/A   Clear
8:55 PM 58.1 °F 54.5 °F 88% 30.24 in 10.0 mi ENE 5.8 mph - N/A   Clear
9:15 PM 58.1 °F 54.3 °F 87% 30.24 in 10.0 mi ENE 6.9 mph - N/A   Clear
9:35 PM 57.9 °F 53.6 °F 86% 30.26 in 10.0 mi East 4.6 mph - N/A   Clear
9:55 PM 56.5 °F 53.4 °F 89% 30.26 in 10.0 mi ENE 4.6 mph - N/A   Clear
10:15 PM 56.3 °F 53.6 °F 91% 30.27 in 10.0 mi Calm Calm - N/A   Clear
10:35 PM 55.4 °F 53.4 °F 93% 30.27 in 10.0 mi East 3.5 mph - N/A   Clear
10:55 PM 54.0 °F 52.3 °F 94% 30.27 in 10.0 mi Calm Calm - N/A   Clear
11:15 PM 54.1 °F 52.5 °F 94% 30.27 in 10.0 mi Calm Calm - N/A   Clear
11:35 PM 54.0 °F 53.8 °F 99% 30.27 in 10.0 mi Calm Calm - N/A   Clear
11:55 PM 54.9 °F 54.7 °F 99% 30.27 in 10.0 mi Calm Calm - N/A   Clear